Flag for Slovenia Weather past 2 weeks in Maribor, Slovenia

Now
73 °F

Partly sunny.


Feels Like: 77 °F
Forecast: 56 / 64 °F
Wind: 5 mph from South

Location: Maribor / Slivnica

Current Time: Oct 20, 2014 at 3:37:05 PM

Latest Report: Oct 20, 2014 at 3:00 PM


Visibility: 19 mi

Pressure: 30.02 "Hg

Humidity: 54%

Dew point: 55 °F

Location of MariborLocation

Historic Weather in Maribor — Graph

°F

Maribor temperature yesterday

Maximum temperature yesterday: 72 °F (at 4:00 PM)
Minimum temperature yesterday: 45 °F (at 7:00 AM)
Average temperature yesterday: 57 °F

Past Weeks' High & Low Weather Summary

 TemperatureHumidityPressure
High78 °F (Oct 10, 2:00 PM)99% (Oct 6, 8:00 AM)30.34 "Hg (Oct 6, 8:00 AM)
Low45 °F (Oct 19, 7:00 AM)39% (Oct 14, 3:00 PM)29.73 "Hg (Oct 15, 3:00 PM)
Average62 °F77%29.99 "Hg
* Reported Oct 5 2:00 PM — Oct 20 2:00 PM, Maribor, Weather by CustomWeather, © 2014

Note: Actual official high and low records may vary slightly from our data, if they occured in-between our weather recording intervals... More about our weather records

Advertising

Maribor weather history for previous 24 hours

 ConditionsComfort  
Time TempWeatherWind HumidityBarometerVisibility
2:00 PM
Oct 20
74 °FPartly sunny.6 mph51%30.03 "Hg19 mi
1:00 PM72 °FPartly sunny.5 mph55%30.06 "Hg25 mi
12:00 PM70 °FMild.3 mph59%30.08 "HgN/A
11:00 AM66 °FPartly sunny.2 mph65%30.11 "Hg25 mi
10:00 AM60 °FPartly sunny.1 mph80%30.13 "Hg25 mi
9:00 AM54 °FFog.No wind91%30.14 "HgN/A
8:00 AM48 °FScattered clouds.1 mph99%30.15 "Hg19 mi
7:00 AM45 °FFog.1 mph98%30.14 "Hg1 mi
5:00 AM46 °FDuststorm.1 mph99%30.15 "HgN/A
4:00 AM47 °FDuststorm.1 mph95%30.16 "HgN/A
3:00 AM50 °FCool.2 mph97%30.17 "HgN/A
2:00 AM49 °FCool.No wind96%30.18 "HgN/A
1:00 AM50 °FDuststorm.2 mph98%30.19 "HgN/A
12:00 AM51 °FDuststorm.1 mph98%30.19 "HgN/A
11:00 PM
Oct 19
52 °FDuststorm.1 mph97%30.19 "HgN/A
10:00 PM53 °FClear.1 mph97%30.19 "Hg12 mi
9:00 PM55 °FClear.1 mph94%30.19 "Hg12 mi
8:00 PM58 °FClear.1 mph90%30.19 "Hg12 mi
7:00 PM62 °FPassing clouds.2 mph79%30.17 "Hg12 mi
6:00 PM66 °FPartly sunny.6 mph71%30.16 "Hg12 mi
5:00 PM69 °FPartly sunny.5 mph63%30.16 "Hg12 mi
4:00 PM72 °FPartly sunny.5 mph58%30.17 "Hg12 mi
3:00 PM70 °FPartly sunny.5 mph58%30.19 "Hg12 mi
Weather by CustomWeather, © 2014

See weather overviewHow to use our weather pages